BOX335 LIML-LIRN

Flight info

Callsign BOX335
Flight time N/A
Altitude 41000
Route ABSEM6AXLOGDI7A/35 LOGDI DCT LOMED DCT GENGI DCT EVULI DCT ERIKA
Aircraft B77L/H-SDE1E2E3FGHIJ2J3J4J5M1RWXY/LB1D1

Departure

Time N/A
Airport Milano Linate Airport (LIML)

Arrival

Time 2026-05-04 18:21
Airport Naples International Airport (LIRN)
Time Latitude Longitude Altitude Speed Heading
2026-05-04 18:05 41.22080 14.45761 13699 ft 271 kts 225°
2026-05-04 18:06 41.19976 14.41866 13132 ft 256 kts 240°
2026-05-04 18:06 41.18853 14.40066 12619 ft 258 kts 213°
2026-05-04 18:06 41.17131 14.39403 12105 ft 265 kts 176°
2026-05-04 18:07 41.15423 14.40232 11669 ft 266 kts 140°
2026-05-04 18:07 41.14388 14.42223 11268 ft 266 kts 105°
2026-05-04 18:07 41.14396 14.44633 10807 ft 265 kts 69°
2026-05-04 18:07 41.15362 14.46697 10315 ft 262 kts 52°
2026-05-04 18:08 41.16197 14.48788 9701 ft 262 kts 81°
2026-05-04 18:08 41.16402 14.51164 9187 ft 259 kts 83°
2026-05-04 18:08 41.16754 14.53507 8783 ft 258 kts 76°
2026-05-04 18:08 41.17231 14.55795 8436 ft 256 kts 74°
2026-05-04 18:09 41.18263 14.60313 7691 ft 254 kts 73°
2026-05-04 18:09 41.19313 14.64741 7047 ft 246 kts 73°
2026-05-04 18:10 41.19817 14.66850 6994 ft 237 kts 73°
2026-05-04 18:10 41.20323 14.68975 7029 ft 248 kts 73°
2026-05-04 18:10 41.20846 14.71193 7001 ft 256 kts 75°
2026-05-04 18:10 41.20966 14.73516 6983 ft 250 kts 107°
2026-05-04 18:11 41.20122 14.75430 6993 ft 238 kts 140°
2026-05-04 18:11 41.18804 14.76680 6987 ft 234 kts 150°
2026-05-04 18:11 41.17417 14.77816 6991 ft 233 kts 149°
2026-05-04 18:11 41.16031 14.78959 6998 ft 234 kts 149°
2026-05-04 18:12 41.14589 14.79941 6980 ft 228 kts 170°
2026-05-04 18:12 41.13060 14.79789 7005 ft 224 kts 206°
2026-05-04 18:12 41.11847 14.78494 7000 ft 230 kts 235°
2026-05-04 18:12 41.10981 14.76709 7001 ft 231 kts 237°
2026-05-04 18:13 41.10109 14.74913 7005 ft 233 kts 237°
2026-05-04 18:13 41.09231 14.73070 6997 ft 234 kts 237°
2026-05-04 18:13 41.07525 14.69430 6996 ft 231 kts 238°
2026-05-04 18:14 41.06685 14.67631 6988 ft 227 kts 238°
2026-05-04 18:14 41.05866 14.65879 6972 ft 223 kts 238°
2026-05-04 18:14 41.05047 14.64124 6684 ft 228 kts 238°
2026-05-04 18:15 41.03381 14.60564 6049 ft 223 kts 238°
2026-05-04 18:15 41.01782 14.57152 5411 ft 211 kts 237°
2026-05-04 18:15 41.01030 14.55544 5117 ft 202 kts 237°
2026-05-04 18:16 41.00303 14.53992 4807 ft 195 kts 237°
2026-05-04 18:16 40.99604 14.52500 4493 ft 187 kts 237°
2026-05-04 18:16 40.98938 14.51078 4268 ft 176 kts 237°
2026-05-04 18:17 40.97735 14.48513 3735 ft 150 kts 237°
2026-05-04 18:17 40.97364 14.47723 3603 ft 149 kts 237°
2026-05-04 18:17 40.96267 14.45386 3180 ft 149 kts 237°
2026-05-04 18:18 40.95726 14.44232 2947 ft 147 kts 237°
2026-05-04 18:18 40.95186 14.43082 2752 ft 148 kts 237°
2026-05-04 18:18 40.94642 14.41924 2524 ft 148 kts 238°
2026-05-04 18:18 40.94102 14.40772 2302 ft 147 kts 238°
2026-05-04 18:19 40.93024 14.38476 1875 ft 147 kts 239°
2026-05-04 18:19 40.92485 14.37329 1646 ft 146 kts 239°
2026-05-04 18:19 40.91948 14.36188 1429 ft 146 kts 239°
2026-05-04 18:20 40.91418 14.35058 1213 ft 144 kts 239°
2026-05-04 18:20 40.90939 14.34039 1010 ft 145 kts 240°
2026-05-04 18:20 40.90405 14.32911 803 ft 145 kts 239°
2026-05-04 18:20 40.89862 14.31785 570 ft 145 kts 239°
2026-05-04 18:21 40.89331 14.30646 316 ft 144 kts 240°
2026-05-04 18:21 40.88826 14.29562 262 ft 127 kts 239°
2026-05-04 18:21 40.88427 14.28703 280 ft 88 kts 239°
2026-05-04 18:21 40.88187 14.28193 297 ft 34 kts 237°
2026-05-04 18:22 40.88092 14.28051 298 ft 15 kts 189°
2026-05-04 18:22 40.88045 14.28069 299 ft 0 kts 149°
2026-05-04 18:22 40.88037 14.28075 301 ft 0 kts 149°
2026-05-04 18:22 40.88019 14.28112 299 ft 9 kts 95°
2026-05-04 18:23 40.88054 14.28207 298 ft 9 kts 59°
2026-05-04 18:23 40.88061 14.28357 294 ft 27 kts 105°
2026-05-04 18:23 40.88047 14.28468 291 ft 0 kts 96°
2026-05-04 18:23 40.88045 14.28503 293 ft 9 kts 96°
2026-05-04 18:24 40.88055 14.28587 288 ft 2 kts 42°
2026-05-04 18:24 40.88076 14.28584 287 ft 0 kts 326°
2026-05-04 18:24 40.88088 14.28573 291 ft 5 kts 326°
2026-05-04 18:24 40.88099 14.28564 287 ft 0 kts 327°